Location: Launois
(49.6535°N, 4.5395°E)
Time: 07:48:03
(UTC+00:00)

CZ-2D R/B - Pass Details

Date: 10 August 2024
Orbit: 791 x 842 km, 98.8° (Epoch: 16 September)

Event Time Altitude Azimuth Distance (km) Brightness Sun altitude
Rises 01:34:00 0° 17° (NNE) 3,325 6.8 -20.8°
Reaches altitude 10° 01:36:22 10° 22° (NNE) 2,397 5.7 -20.6°
Maximum altitude 01:41:36 58° 101° (ESE) 945 2.5 -20.2°
Enters shadow 01:44:11 30° 169° (S) 1,445 3.0 -20.0°
